Date String (YYYY-MM-DD hh:mm:ss) UTC,Instrument flags,Ambient pressure (hPa),Sample flow (lpm),Bypass flow (lpm),Sample temperature (°C),Ambient temperature (°C),ASC tube jacket temperature (°C),LED temperature (°C),Box temperature (°C),Sample RH (%),Span deviation,Mass concentration (μg/m³),Mass concentration (μg/m³),Mass concentration (μg/m³)
DateTimeUTC,F1_M11,P_M11,Q1_M11,Q2_M11,T1_M11,T2_M11,T3_M11,T4_M11,T5_M11,U1_M11,ZSPAN_M11,X2_M11,X0_M11,X1_M11
2021-09-13 17:00:00,,0828.4,5.00,0.00,29.7,27.1,00.0,38.9,31.2,25.5,0000.0,0004.68,0016.01,0003.35
2021-09-13 17:01:00,,0828.2,5.01,0.00,29.6,27.3,00.0,38.9,31.1,25.6,0000.0,0004.65,0014.90,0003.32
2021-09-13 17:02:00,,0828.1,5.00,0.00,29.5,27.6,00.0,38.8,31.1,25.8,0000.0,0004.67,0014.83,0003.31
2021-09-13 17:03:00,,0828.1,5.00,0.00,29.5,27.8,00.0,38.8,31.2,26.3,0000.0,0004.61,0014.43,0003.29
2021-09-13 17:04:00,,0828.2,5.00,0.00,29.6,28.1,00.0,38.8,31.3,26.4,0000.0,0004.54,0013.90,0003.27
2021-09-13 17:05:00,,0828.3,5.00,0.00,29.6,28.3,00.0,38.8,31.4,26.5,0000.0,0004.51,0013.81,0003.24
2021-09-13 17:06:00,,0828.3,4.99,0.00,29.6,28.5,00.0,38.8,31.4,25.9,0000.0,0004.44,0014.78,0003.23
2021-09-13 17:07:00,,0828.3,5.01,0.00,29.7,28.6,00.0,38.8,31.5,25.7,0000.0,0004.43,0015.63,0003.21
2021-09-13 17:08:00,,0828.4,4.99,0.00,29.7,28.8,00.0,38.8,31.5,25.5,0000.0,0004.41,0015.33,0003.20
2021-09-13 17:09:00,,0828.4,5.00,0.00,29.8,28.9,00.0,38.8,31.6,25.5,0000.0,0004.45,0015.32,0003.19
2021-09-13 17:10:00,,0828.4,5.00,0.00,29.8,29.0,00.0,38.8,31.6,25.9,0000.0,0004.51,0014.97,0003.19
2021-09-13 17:11:00,,0828.3,4.98,0.00,29.8,29.1,00.0,38.8,31.7,25.8,0000.0,0004.44,0014.48,0003.19
2021-09-13 17:12:00,,0828.3,5.00,0.00,29.9,29.1,00.0,38.9,31.7,25.9,0000.0,0004.40,0015.09,0003.19
2021-09-13 17:13:00,,0828.4,4.99,0.00,29.9,29.2,00.0,38.9,31.8,26.1,0000.0,0004.35,0015.20,0003.18
2021-09-13 17:14:00,,0828.4,5.00,0.00,30.0,29.2,00.0,38.9,31.8,25.7,0000.0,0004.35,0015.54,0003.18
2021-09-13 17:15:00,,0828.5,5.00,0.00,30.0,29.3,00.0,39.0,31.9,25.7,0000.0,0004.35,0015.71,0003.19
2021-09-13 17:16:00,,0828.5,5.00,0.00,30.0,29.4,00.0,39.0,31.9,25.9,0000.0,0004.45,0016.41,0003.22
2021-09-13 17:17:00,,0828.5,4.99,0.00,30.1,29.4,00.0,39.0,32.0,25.7,0000.0,0004.52,0016.28,0003.23
2021-09-13 17:18:00,,0828.5,5.01,0.00,30.1,29.0,00.0,39.0,31.9,25.7,0000.0,0004.51,0015.17,0003.25
2021-09-13 17:19:00,,0828.3,4.99,0.00,30.0,27.2,00.0,39.0,31.4,25.9,0000.0,0004.54,0014.90,0003.27
2021-09-13 17:20:00,,0828.2,4.99,0.00,29.9,26.3,00.0,39.0,31.2,26.5,0000.0,0004.60,0014.83,0003.29
2021-09-13 17:21:00,,0828.1,5.00,0.00,29.8,26.6,00.0,39.0,31.2,26.2,0000.0,0004.64,0014.78,0003.31
2021-09-13 17:22:00,,0828.1,5.02,0.00,29.7,27.0,00.0,38.9,31.3,25.8,0000.0,0004.70,0014.76,0003.31
2021-09-13 17:23:00,,0828.2,4.99,0.00,29.7,27.5,00.0,38.9,31.4,26.1,0000.0,0004.71,0013.87,0003.31
2021-09-13 17:24:00,,0828.3,5.00,0.00,29.7,27.8,00.0,38.9,31.4,26.1,0000.0,0004.72,0014.10,0003.32
2021-09-13 17:25:00,,0828.4,5.01,0.00,29.8,28.1,00.0,38.9,31.5,25.7,0000.0,0004.68,0013.82,0003.32
2021-09-13 17:26:00,,0828.4,4.99,0.00,29.8,28.3,00.0,38.9,31.5,25.6,0000.0,0004.65,0014.09,0003.31
2021-09-13 17:27:00,,0828.3,5.00,0.00,29.8,28.5,00.0,38.9,31.6,26.2,0000.0,0004.59,0013.68,0003.30
2021-09-13 17:28:00,,0828.3,5.01,0.00,29.8,28.7,00.0,38.9,31.6,26.1,0000.0,0004.56,0012.77,0003.30
2021-09-13 17:29:00,,0828.2,5.00,0.00,29.9,28.8,00.0,38.9,31.7,26.1,0000.0,0004.64,0013.47,0003.29
2021-09-13 17:30:00,,0828.1,4.99,0.00,29.9,28.9,00.0,38.9,31.7,25.9,0000.0,0004.60,0014.23,0003.27
2021-09-13 17:31:00,,0828.1,5.01,0.00,29.9,29.0,00.0,38.9,31.7,25.8,0000.0,0004.53,0013.91,0003.25
2021-09-13 17:32:00,,0828.1,5.00,0.00,30.0,29.0,00.0,38.9,31.8,25.2,0000.0,0004.51,0013.53,0003.23
2021-09-13 17:33:00,,0828.1,5.00,0.00,30.0,29.1,00.0,39.0,31.9,25.0,0000.0,0004.47,0013.58,0003.22
2021-09-13 17:34:00,,0828.1,5.01,0.00,30.0,29.1,00.0,39.0,31.9,25.5,0000.0,0004.46,0013.48,0003.21
2021-09-13 17:35:00,,0828.2,5.01,0.00,30.1,29.2,00.0,39.0,31.9,25.4,0000.0,0004.44,0012.87,0003.21
2021-09-13 17:36:00,,0828.2,4.99,0.00,30.1,28.9,00.0,39.0,31.8,25.5,0000.0,0004.48,0013.52,0003.20
2021-09-13 17:37:00,,0828.1,5.01,0.00,30.0,27.2,00.0,39.0,31.4,25.8,0000.0,0004.53,0014.07,0003.20
2021-09-13 17:38:00,,0828.0,4.99,0.00,29.8,26.1,00.0,39.0,31.0,25.9,0000.0,0004.57,0014.55,0003.20
2021-09-13 17:39:00,,0827.9,5.00,0.00,29.7,26.3,00.0,39.0,31.1,25.8,0000.0,0004.58,0014.83,0003.19
2021-09-13 17:40:00,,0827.9,5.01,0.00,29.7,26.7,00.0,38.9,31.1,26.0,0000.0,0004.49,0014.67,0003.17
2021-09-13 17:41:00,,0827.9,4.99,0.00,29.6,27.2,00.0,38.9,31.2,26.3,0000.0,0004.49,0013.84,0003.17
2021-09-13 17:42:00,,0828.0,5.01,0.00,29.6,27.5,00.0,38.8,31.3,26.1,0000.0,0004.46,0014.79,0003.16
2021-09-13 17:43:00,,0827.9,4.99,0.00,29.7,27.9,00.0,38.8,31.4,25.7,0000.0,0004.40,0015.40,0003.16
2021-09-13 17:44:00,,0828.0,5.00,0.00,29.7,28.1,00.0,38.8,31.4,25.7,0000.0,0004.37,0015.29,0003.15
2021-09-13 17:45:00,,0827.9,5.00,0.00,29.7,28.3,00.0,38.8,31.4,25.8,0000.0,0004.36,0015.59,0003.16
2021-09-13 17:46:00,,0828.0,5.01,0.00,29.7,28.5,00.0,38.8,31.5,25.9,0000.0,0004.38,0016.38,0003.15
2021-09-13 17:47:00,,0827.9,4.99,0.00,29.8,28.6,00.0,38.8,31.6,26.2,0000.0,0004.36,0016.83,0003.15
2021-09-13 17:48:00,,0828.0,5.01,0.00,29.8,28.8,00.0,38.8,31.6,25.8,0000.0,0004.38,0015.98,0003.15
2021-09-13 17:49:00,,0828.1,4.99,0.00,29.8,28.9,00.0,38.8,31.7,25.5,0000.0,0004.34,0015.55,0003.14
2021-09-13 17:50:00,,0828.1,5.00,0.00,29.9,29.0,00.0,38.9,31.7,25.4,0000.0,0004.30,0015.65,0003.14
2021-09-13 17:51:00,,0828.1,5.00,0.00,29.9,29.0,00.0,38.9,31.8,25.2,0000.0,0004.29,0016.00,0003.15
2021-09-13 17:52:00,,0828.0,5.00,0.00,29.9,29.1,00.0,38.9,31.8,25.2,0000.0,0004.26,0015.79,0003.14
2021-09-13 17:53:00,,0828.0,5.00,0.00,30.0,29.2,00.0,38.9,31.8,25.1,0000.0,0004.31,0014.99,0003.17
2021-09-13 17:54:00,,0828.0,5.00,0.00,30.0,29.3,00.0,39.0,31.9,25.2,0000.0,0004.30,0014.39,0003.18
2021-09-13 17:55:00,,0827.9,4.99,0.00,30.0,28.5,00.0,39.0,31.7,25.2,0000.0,0004.30,0014.38,0003.19
2021-09-13 17:56:00,,0827.9,4.99,0.00,29.9,26.7,00.0,39.0,31.2,25.2,0000.0,0004.24,0014.10,0003.18
2021-09-13 17:57:00,,0827.9,5.02,0.00,29.8,26.2,00.0,38.9,31.1,26.0,0000.0,0004.23,0013.42,0003.20
2021-09-13 17:58:00,,0827.9,5.00,0.00,29.7,26.5,00.0,38.9,31.2,27.0,0000.0,0004.26,0014.11,0003.21
2021-09-13 17:59:00,,0827.9,4.99,0.00,29.6,27.0,00.0,38.8,31.2,27.0,0000.0,0004.25,0014.24,0003.23
